Time_in_sec,Mx,My,Mz
1314271965.94951725,-0.57545435,0.17674775,-0.81780779
1314271965.98847389,-0.57504189,0.17397958,-0.81802893
1314271966.04045868,-0.57568693,0.17486003,-0.81740928
1314271966.08965063,-0.57820946,0.17528045,-0.81888193
1314271966.14053535,-0.57506251,0.17662038,-0.81804967
1314271966.18861818,-0.57545048,0.17524025,-0.81792897
1314271966.23648238,-0.57661897,0.17574662,-0.81707126
1314271966.28844833,-0.57642514,0.17651169,-0.81825906
1314271966.33661509,-0.57515669,0.17751734,-0.81952006
1314271966.38949919,-0.57627368,0.17650710,-0.81798524
1314271966.43759441,-0.57725441,0.17652406,-0.81857157
1314271966.48949337,-0.57636672,0.17511931,-0.81744993
1314271966.54948378,-0.57748693,0.17564082,-0.81804794
1314271966.58947897,-0.57635331,0.17350878,-0.81969112
1314271966.63742876,-0.57434046,0.17512175,-0.81972092
1314271966.68849301,-0.57575828,0.17587820,-0.81848156
1314271966.73750472,-0.57797408,0.17478192,-0.81952769
1314271966.78811884,-0.57730621,0.17402267,-0.81974918
1314271966.83651376,-0.57551897,0.17487665,-0.81912339
1314271966.88949490,-0.57466686,0.17498548,-0.81841272
1314271966.94044423,-0.57608688,0.17714792,-0.81930512
1314271966.98848748,-0.57505697,0.17601585,-0.82029873
1314271967.03816724,-0.57666200,0.17527696,-0.82011950
1314271967.08847475,-0.57654428,0.17552996,-0.82037985
1314271967.14150310,-0.57482141,0.17752632,-0.82069421
1314271967.19253564,-0.57672834,0.17667086,-0.82106167
1314271967.23738003,-0.57687896,0.17454071,-0.82158482
1314271967.29018188,-0.57649666,0.17552085,-0.81958157
1314271967.34046888,-0.57722050,0.17543623,-0.82267153
1314271967.38961148,-0.57769525,0.17593180,-0.82150900
1314271967.44043040,-0.57681584,0.17467856,-0.82277542
1314271967.48945594,-0.57639486,0.17477237,-0.82023317
1314271967.53755903,-0.57765371,0.17466819,-0.82096696
1314271967.58865499,-0.57718652,0.17402415,-0.82000756
1314271967.63707495,-0.57588452,0.17693122,-0.82273906
1314271967.68980742,-0.57636833,0.17654955,-0.82183576
1314271967.74150181,-0.57632166,0.17666620,-0.82103848
1314271967.78860450,-0.57594877,0.17591462,-0.82167459
1314271967.83801556,-0.57647908,0.17642081,-0.82144338
1314271967.88849258,-0.57628399,0.17590562,-0.82050037
1314271967.94959450,-0.57526678,0.17841733,-0.82125652
1314271967.98845148,-0.57549852,0.17439486,-0.82110733
1314271968.04058599,-0.57693756,0.17392409,-0.82264417
1314271968.08988333,-0.57441789,0.17488542,-0.82104939
1314271968.14151883,-0.57591498,0.17666154,-0.82101530
1314271968.18848729,-0.57614577,0.17668131,-0.82261950
1314271968.24047732,-0.57658595,0.17578904,-0.82104701
1314271968.28860188,-0.57599705,0.17489497,-0.82034397
1314271968.33761001,-0.57722306,0.17566349,-0.82041949
1314271968.40046430,-0.57529134,0.17638864,-0.81965190
1314271968.43756580,-0.57474738,0.17728542,-0.82174885
1314271968.48976827,-0.57655030,0.17427547,-0.82063603
1314271968.54960775,-0.57610977,0.17602223,-0.81982845
1314271968.58950567,-0.57619721,0.17402993,-0.82154214
1314271968.64044309,-0.57591206,0.17527978,-0.82113743
1314271968.68849039,-0.57654071,0.17517695,-0.82263088
1314271968.74047375,-0.57450002,0.17829135,-0.82200736
1314271968.78834081,-0.57436615,0.17738681,-0.81987178
1314271968.84060001,-0.57631749,0.17500870,-0.81890470
1314271968.88949418,-0.57629901,0.17477840,-0.82089061
1314271968.94848776,-0.57506889,0.17551589,-0.82056081
1314271968.98848581,-0.57655531,0.17389973,-0.82076615
1314271969.03759670,-0.57674146,0.17428765,-0.82157511
1314271969.08947897,-0.57590228,0.17402226,-0.82112759
1314271969.13648272,-0.57668072,0.17666176,-0.82026345
1314271969.19248819,-0.57578731,0.17666151,-0.82114059
1314271969.23753738,-0.57504511,0.17551133,-0.82016170
1314271969.28949499,-0.57680744,0.17553155,-0.82026225
1314271969.33647966,-0.57685101,0.17704664,-0.82080632
1314271969.38959289,-0.57540345,0.17653564,-0.82151550
1314271969.45267916,-0.57513827,0.17628254,-0.82163113
1314271969.48861814,-0.57563710,0.17376916,-0.82124317
1314271969.53733492,-0.57451236,0.17693688,-0.82464963
1314271969.58786225,-0.57524621,0.17477204,-0.82136089
1314271969.63748789,-0.57693249,0.17530432,-0.82238901
1314271969.68876195,-0.57657629,0.17669052,-0.82304186
1314271969.73645568,-0.57633948,0.17692074,-0.82130653
1314271969.78848147,-0.57482255,0.17564309,-0.82094550
1314271969.83827233,-0.57606345,0.17628887,-0.82128614
1314271969.88847470,-0.57583004,0.17604184,-0.82193387
1314271969.94151878,-0.57639605,0.17705712,-0.82223880
1314271969.99652314,-0.57714230,0.17770579,-0.82334679
1314271970.03649688,-0.57640314,0.17492388,-0.82262117
1314271970.08853531,-0.57616842,0.17440110,-0.82101297
1314271970.13689995,-0.57614219,0.17632830,-0.82487053
1314271970.18858457,-0.57664567,0.17745718,-0.82411212
1314271970.24043560,-0.57478911,0.17654000,-0.82254118
1314271970.28865170,-0.57680172,0.17794053,-0.82213593
1314271970.34161210,-0.57534850,0.17782950,-0.82496899
1314271970.38716364,-0.57477534,0.17477947,-0.82252735
1314271970.44950342,-0.57708019,0.17696491,-0.82466352
1314271970.49007463,-0.57496810,0.17622191,-0.82785219
1314271970.54044223,-0.57511103,0.17391598,-0.82373327
1314271970.58960366,-0.57544649,0.17606598,-0.82456380
1314271970.63804221,-0.57582235,0.17719482,-0.82393068
1314271970.68961930,-0.57677543,0.17569973,-0.82423908
1314271970.74147081,-0.57608467,0.17606616,-0.82393724
1314271970.78848386,-0.57777101,0.17559396,-0.82509047
1314271970.84161043,-0.57541698,0.17746592,-0.82616341
1314271970.88880825,-0.57590884,0.17507677,-0.82564342
1314271970.94965434,-0.57743472,0.17648169,-0.82613856
1314271970.98979807,-0.57685786,0.17408316,-0.82582271
1314271971.04979658,-0.57644433,0.17319822,-0.82579261
1314271971.09707165,-0.57791269,0.17333652,-0.82547957
1314271971.14849734,-0.57622814,0.17222549,-0.82908756
1314271971.20046806,-0.57607841,0.17131791,-0.82668591
1314271971.24852324,-0.57662666,0.17107414,-0.82684791
1314271971.29778719,-0.57653284,0.17449518,-0.82938689
1314271971.34848475,-0.57669497,0.17271954,-0.82779205
1314271971.38955355,-0.57686043,0.17147116,-0.82845509
1314271971.45091581,-0.57734537,0.17337425,-0.82955748
1314271971.50064015,-0.57588947,0.17371623,-0.82775354
1314271971.54960823,-0.57593983,0.17194359,-0.82655007
1314271971.59747529,-0.57849914,0.17098984,-0.82881004
1314271971.64963770,-0.57624763,0.17258154,-0.82710260
1314271971.69763231,-0.57595026,0.17450561,-0.83094472
1314271971.74960756,-0.57597053,0.17282841,-0.82695609
1314271971.80046988,-0.57576877,0.17359196,-0.82801086
1314271971.84847736,-0.57583594,0.17295261,-0.82694936
1314271971.90049982,-0.57713050,0.17235301,-0.82834446
1314271971.94167709,-0.57672977,0.17209837,-0.82845229
1314271972.00046396,-0.57613981,0.17308754,-0.82749796
1314271972.04961109,-0.57606977,0.17234513,-0.82868171
1314271972.09751153,-0.57587194,0.17361169,-0.82974041
1314271972.14848423,-0.57678598,0.17208475,-0.82712960
1314271972.19647431,-0.57651180,0.17270888,-0.82698601
1314271972.25250006,-0.57740331,0.17145313,-0.82623208
1314271972.29649472,-0.57572591,0.17104812,-0.82533801
1314271972.34860778,-0.57670158,0.17244531,-0.82566911
1314271972.39748859,-0.57520336,0.17355694,-0.82532680
1314271972.44846916,-0.57590711,0.17181177,-0.82601690
1314271972.49754810,-0.57701945,0.17132728,-0.82660699
1314271972.54847693,-0.57899839,0.17146572,-0.82579273
1314271972.59645271,-0.57526475,0.17015408,-0.82450962
1314271972.65038419,-0.57564384,0.17281468,-0.82600933
1314271972.69650126,-0.57575679,0.17509642,-0.82762361
1314271972.74071670,-0.57537574,0.17218432,-0.82612193
1314271972.79645300,-0.57695770,0.17458013,-0.82516921
1314271972.84845996,-0.57782978,0.17296834,-0.82640016
1314271972.89821553,-0.57636529,0.17333305,-0.82671714
1314271972.94845247,-0.57590413,0.17143451,-0.82601392
1314271972.99645257,-0.57593000,0.17068607,-0.82654017
1314271973.04624891,-0.57594955,0.17003761,-0.82468039
1314271973.09644842,-0.57694912,0.16943036,-0.82566088
1314271973.14845181,-0.57729059,0.17133038,-0.82662249
1314271973.19650435,-0.57673442,0.17157263,-0.82632738
1314271973.24858046,-0.57617295,0.17103612,-0.82377243
1314271973.28955650,-0.57807887,0.17105940,-0.82401377
1314271973.34846973,-0.57641828,0.17595567,-0.82501608
1314271973.38947845,-0.57580477,0.17392679,-0.82403803
1314271973.45153904,-0.57577121,0.17582820,-0.82550859
1314271973.48878407,-0.57561469,0.17303586,-0.82322514
1314271973.54148555,-0.57592946,0.17771757,-0.82566416
1314271973.58846974,-0.57549477,0.17605084,-0.82310808
1314271973.64048839,-0.57697409,0.17656791,-0.82293105
1314271973.68965316,-0.57513463,0.17693403,-0.82375699
1314271973.74946904,-0.57514220,0.17678554,-0.82163507
1314271973.78962040,-0.57771438,0.17229408,-0.82227862
1314271973.85019565,-0.57640350,0.17507388,-0.82487613
1314271973.88852882,-0.57536530,0.17379031,-0.82348168
1314271973.94849062,-0.57647157,0.17556478,-0.82369041
1314271974.00048327,-0.57831210,0.17331544,-0.82311577
1314271974.04860115,-0.57703489,0.17218481,-0.82449299
1314271974.08849406,-0.57657760,0.17179377,-0.82366854
1314271974.14859104,-0.57549816,0.17557360,-0.82549113
1314271974.18847466,-0.57565928,0.17367221,-0.82389528
1314271974.24847293,-0.57573229,0.17479187,-0.82271451
1314271974.29791212,-0.57770377,0.17306980,-0.82427245
1314271974.34848714,-0.57786673,0.17342892,-0.82242829
1314271974.40047169,-0.57618773,0.17292240,-0.82378727
1314271974.44160080,-0.57833397,0.17306848,-0.82351291
1314271974.48983359,-0.57603621,0.17392232,-0.82338828
1314271974.54846549,-0.57527190,0.17603259,-0.82163686
1314271974.58850098,-0.57719940,0.17364994,-0.82027066
1314271974.64877510,-0.57646263,0.17543752,-0.82355642
1314271974.68960452,-0.57553530,0.17302069,-0.82189471
1314271974.74047160,-0.57566679,0.17452823,-0.82164824
1314271974.80077291,-0.57730252,0.17467415,-0.82187510
1314271974.84858656,-0.57421917,0.17502172,-0.82223231
1314271974.88850999,-0.57564336,0.17467368,-0.82350409
1314271974.94848680,-0.57527512,0.17756434,-0.82376969
1314271974.98914242,-0.57537293,0.17364182,-0.82135975
1314271975.03752160,-0.57673949,0.17403615,-0.82157314
1314271975.08860731,-0.57624066,0.17654952,-0.82196105
1314271975.14061928,-0.57423031,0.17655499,-0.82449812
1314271975.19685411,-0.57600135,0.17554799,-0.82260287
1314271975.24154162,-0.57561034,0.17338736,-0.82084107
1314271975.28953099,-0.57680386,0.17517854,-0.82251328
1314271975.34047008,-0.57531911,0.17689620,-0.82005501
1314271975.38940072,-0.57684124,0.17478462,-0.82092154
1314271975.43839049,-0.57509458,0.17677644,-0.82083678
1314271975.48854899,-0.57432181,0.17790495,-0.82133144
1314271975.54152346,-0.57529736,0.17613865,-0.81978297
1314271975.58849406,-0.57626528,0.17452084,-0.82035649
1314271975.64053273,-0.57430011,0.17614290,-0.82118458
1314271975.68967128,-0.57507867,0.17777790,-0.82044560
1314271975.74148750,-0.57643837,0.17729196,-0.82065201
1314271975.78849864,-0.57632071,0.17654045,-0.82103747
1314271975.84052634,-0.57552177,0.17726290,-0.81887609
1314271975.88850975,-0.57536149,0.17612654,-0.81859332
1314271975.94160891,-0.57441998,0.17830043,-0.82293093
1314271975.99646235,-0.57535577,0.17753103,-0.82059211
1314271976.03764176,-0.57462865,0.17324466,-0.82025379
1314271976.08953023,-0.57776135,0.17617118,-0.82032138
1314271976.14847994,-0.57485986,0.17625366,-0.81922859
1314271976.18961692,-0.57545298,0.17262825,-0.82056135
1314271976.24165559,-0.57793969,0.17454860,-0.82124758
1314271976.28850460,-0.57644701,0.17626473,-0.81865621
1314271976.34162140,-0.57666796,0.17502698,-0.82025057
1314271976.38841438,-0.57643449,0.17578445,-0.82077318
1314271976.44058490,-0.57463235,0.17676115,-0.81988227
1314271976.48952889,-0.57599586,0.17778271,-0.81996757
1314271976.54048085,-0.57743573,0.17527871,-0.81950074
1314271976.58850145,-0.57546562,0.17627203,-0.82032388
1314271976.63750267,-0.57461655,0.17575362,-0.81974137
1314271976.68965292,-0.57584345,0.17765237,-0.81969273
1314271976.73839068,-0.57472843,0.17891411,-0.82122952
1314271976.79043651,-0.57508838,0.17587194,-0.81857592
1314271976.83767438,-0.57700217,0.17589673,-0.81895030
1314271976.88948298,-0.57602239,0.17701003,-0.81823981
1314271976.94148707,-0.57526851,0.17650984,-0.81925380
1314271976.98963809,-0.57489061,0.17613399,-0.81975979
1314271977.04858685,-0.57596421,0.17677215,-0.81956053
1314271977.08985424,-0.57579124,0.17299652,-0.81939012
1314271977.14151263,-0.57583469,0.17551611,-0.81980902
1314271977.18983960,-0.57570314,0.17501307,-0.81993037
1314271977.24159503,-0.57723165,0.17564075,-0.81829858
1314271977.28852606,-0.57518435,0.17486140,-0.81804359
1314271977.34849763,-0.57600492,0.17590100,-0.82035184
1314271977.38962173,-0.57509273,0.17552043,-0.82095999
1314271977.43781590,-0.57418442,0.17564289,-0.82157201
1314271977.48949599,-0.57644832,0.17654049,-0.82091218
1314271977.54154253,-0.57380724,0.17840630,-0.82170361
1314271977.59253788,-0.57574177,0.17589940,-0.82046944
1314271977.64049911,-0.57432467,0.17411421,-0.81958002
1314271977.68972158,-0.57491535,0.17726879,-0.82003474
1314271977.74144077,-0.57543087,0.17689320,-0.81966364
1314271977.78960323,-0.57553566,0.17701444,-0.81914020
1314271977.84169412,-0.57592565,0.17488131,-0.81914657
1314271977.88949609,-0.57664615,0.17527394,-0.81985343
1314271977.94092727,-0.57545364,0.17777650,-0.81993663
1314271977.99249077,-0.57640183,0.17464814,-0.82036519
1314271978.04147267,-0.57593244,0.17676608,-0.81902838
1314271978.08957291,-0.57513607,0.17487654,-0.81949931
1314271978.14846897,-0.57490849,0.17638853,-0.82002783
1314271978.18960905,-0.57483143,0.17677484,-0.82095438
1314271978.24045992,-0.57616246,0.17465110,-0.82088190
1314271978.28951073,-0.57573187,0.17564638,-0.82033443
1314271978.34246993,-0.57536495,0.17881280,-0.82285601
1314271978.39747453,-0.57548213,0.17625082,-0.81833601
1314271978.44047451,-0.57418615,0.17373541,-0.81956929
1314271978.48849344,-0.57442480,0.17576569,-0.82105631
1314271978.54147029,-0.57474416,0.17575365,-0.81961602
1314271978.58955050,-0.57523686,0.17549926,-0.81884676
1314271978.63840151,-0.57605755,0.17553435,-0.82128018
1314271978.68960023,-0.57532007,0.17702195,-0.82005602
1314271978.74150014,-0.57699621,0.17614672,-0.81881922
1314271978.79257298,-0.57687151,0.17652394,-0.81894749
1314271978.84107041,-0.57463437,0.17600816,-0.82000941
1314271978.89029956,-0.57604921,0.17638734,-0.81876707
1314271978.94849944,-0.57574064,0.17778264,-0.82021815
1314271978.98934007,-0.57600409,0.17376624,-0.82060117
1314271979.03777599,-0.57625437,0.17414205,-0.82022047
1314271979.08849263,-0.57637000,0.17564656,-0.81970787
1314271979.14110231,-0.57384598,0.17828813,-0.82236779
1314271979.18847609,-0.57546270,0.17589477,-0.82032090
1314271979.24146271,-0.57694310,0.17452860,-0.82039517
1314271979.28737354,-0.57511652,0.17552499,-0.82135910
1314271979.34160757,-0.57614255,0.17514955,-0.82048672
1314271979.38961720,-0.57528144,0.17613561,-0.81951690
1314271979.44045520,-0.57544774,0.17702200,-0.81993067
1314271979.48962045,-0.57532007,0.17702195,-0.82005602
1314271979.54205561,-0.57478780,0.17626426,-0.82028520
1314271979.60076022,-0.57667291,0.17565574,-0.82025552
1314271979.64067459,-0.57606357,0.17427987,-0.82153642
1314271979.69007492,-0.57652283,0.17492241,-0.82236278
1314271979.74150777,-0.57715207,0.17479531,-0.82160223
1314271979.78955650,-0.57556093,0.17528574,-0.82204556
1314271979.83779359,-0.57551193,0.17600538,-0.81886619
1314271979.88959932,-0.57679945,0.17653453,-0.82000411
1314271979.94161582,-0.57507497,0.17842939,-0.82257146
1314271979.98966122,-0.57521337,0.17564471,-0.82070261
1314271980.04049063,-0.57595426,0.17752363,-0.81930035
1314271980.08747721,-0.57629293,0.17603289,-0.82063442
1314271980.14047909,-0.57519847,0.17576742,-0.82043749
1314271980.18963289,-0.57622051,0.17589347,-0.81943601
1314271980.24496627,-0.57684308,0.17704512,-0.82067323
1314271980.28960824,-0.57422572,0.17575200,-0.81998426
1314271980.34161043,-0.57841551,0.17416541,-0.82021117
1314271980.38877678,-0.57513899,0.17525379,-0.81950223
1314271980.44152236,-0.57515109,0.17791732,-0.82164395
1314271980.48980355,-0.57557237,0.17664477,-0.81980240
1314271980.54051137,-0.57607996,0.17626767,-0.81929821
1314271980.58968401,-0.57584071,0.17426163,-0.82006520
1314271980.64176607,-0.57519150,0.17689615,-0.82018030
1314271980.68855238,-0.57539451,0.17640837,-0.82138151
1314271980.74129486,-0.57508391,0.17855667,-0.82270551
1314271980.79249883,-0.57474923,0.17437342,-0.81987125
1314271980.84061360,-0.57617021,0.17666161,-0.82076466
1314271980.88956070,-0.57542896,0.17563720,-0.81978679
1314271980.94046807,-0.57379913,0.17624578,-0.81956583
1314271980.98960328,-0.57530129,0.17664166,-0.81978697
1314271981.04049325,-0.57371902,0.17725936,-0.82036430
1314271981.08860826,-0.57652348,0.17489816,-0.82010883
1314271981.13761711,-0.57513899,0.17525379,-0.81950223
1314271981.18851733,-0.57513505,0.17475079,-0.81949830
1314271981.23745775,-0.57533807,0.17526749,-0.82057434
1314271981.28952980,-0.57587296,0.17625245,-0.81809312
1314271981.34146237,-0.57649767,0.17464210,-0.81970769
1314271981.38960814,-0.57362884,0.17586090,-0.81902301
1314271981.43743277,-0.57507777,0.17664766,-0.82056975
1314271981.48948073,-0.57559621,0.17664932,-0.82020152
1314271981.53759670,-0.57537258,0.17866431,-0.82073402
1314271981.58976746,-0.57585621,0.17511916,-0.81795120
1314271981.63760972,-0.57747638,0.17541204,-0.82016695
1314271981.68948579,-0.57363468,0.17761992,-0.81890374
1314271981.74047112,-0.57622713,0.17561924,-0.81731313
1314271981.78850794,-0.57591468,0.17550704,-0.81888545
1314271981.83771205,-0.57506853,0.17536590,-0.81830585
1314271981.88848972,-0.57584643,0.17285714,-0.81806642
1314271981.93783545,-0.57674098,0.17614664,-0.81906980
1314271981.98751879,-0.57702804,0.17514829,-0.81947654
1314271982.04059148,-0.57562762,0.17650540,-0.81847876
1314271982.09021258,-0.57592064,0.17525706,-0.81901652
1314271982.14848757,-0.57579082,0.17801902,-0.81876439
1314271982.18949914,-0.57500142,0.17600523,-0.81936741
1314271982.24559307,-0.57544255,0.17523873,-0.81779593
1314271982.28849196,-0.57616711,0.17412536,-0.81875700
1314271982.33747959,-0.57534283,0.17790525,-0.82032901
1314271982.39250660,-0.57671481,0.17574060,-0.81641376
1314271982.43746853,-0.57582575,0.17538884,-0.81967497
1314271982.48990273,-0.57445014,0.17687625,-0.81907731
1314271982.53745770,-0.57516348,0.17523411,-0.81764740
1314271982.58847618,-0.57714480,0.17476955,-0.81921524
1314271982.64047098,-0.57588428,0.17577672,-0.82060921
1314271982.68947673,-0.57574236,0.17587516,-0.81821543
1314271982.73750591,-0.57771283,0.17503184,-0.81964725
1314271982.78920150,-0.57637966,0.17474508,-0.81771308
1314271982.84052491,-0.57495284,0.17486589,-0.81869328
1314271982.88985348,-0.57782459,0.17502883,-0.81925589
1314271982.94075155,-0.57546073,0.17564327,-0.82031894
1314271982.98852396,-0.57543391,0.17626595,-0.81979173
1314271983.03747129,-0.57726449,0.17476808,-0.81895685
1314271983.08961487,-0.57620573,0.17501169,-0.81929606
1314271983.13759947,-0.57477015,0.17816871,-0.82202184
1314271983.18752146,-0.57550502,0.17512512,-0.81885928
1314271983.23760295,-0.57731897,0.17565745,-0.81976205
1314271983.28994250,-0.57543796,0.17475997,-0.82004595
1314271983.34048486,-0.57566631,0.17638724,-0.81914294
1314271983.38853669,-0.57637107,0.17476782,-0.81983399
1314271983.43777537,-0.57529640,0.17500840,-0.81990713
1314271983.48961020,-0.57446414,0.17562328,-0.81946653
1314271983.53759599,-0.57817012,0.17542286,-0.82047170
1314271983.59250569,-0.57624048,0.17439052,-0.81995636
1314271983.63781023,-0.57538259,0.17690834,-0.82111937
1314271983.68849087,-0.57716393,0.17529985,-0.82173926
1314271983.74045491,-0.57580000,0.17513278,-0.81927389
1314271983.79748654,-0.57546973,0.17476603,-0.82057810
